Home   Weather   Bamyan   Past weeks

Flag for Afghanistan Past Weather in Bamyan, Afghanistan — Yesterday and Last 2 Weeks

Now
37 °F

Passing clouds.


Feels Like: 35 °F
Forecast: 14 / 31 °F
Wind: 3 mph from Southwest

Location: Termez Airport

Current Time: Jan 24, 2017 at 8:00:31 pm

Latest Report: Jan 24, 2017 at 7:00 pm


Visibility: N/A

Pressure: 30.57 "Hg (22.46 "Hg at 2492m altitude)

Humidity: 65%

Dew Point: 27 °F

Location of BamyanLocation

Past Weather in Bamyan — Graph

°F

Bamyan Temperature Yesterday

Maximum temperature yesterday: 45 °F (at 9:00 am)
Minimum temperature yesterday: 37 °F (at 11:30 pm)
Average temperature yesterday: 42 °F

High & Low Weather Summary for the Past Weeks

 TemperatureHumidityPressure
High59 °F (Jan 19, 1:30 pm)100% (Jan 15, 12:30 pm)30.57 "Hg (Jan 15, 12:30 pm)
Low27 °F (Jan 10, 5:00 am)18% (Jan 10, 3:30 pm)29.98 "Hg (Jan 14, 1:00 am)
Average40 °F69%30.23 "Hg
* Reported Jan 9 6:30 pm — Jan 24 7:00 pm, Bamyan, Weather by CustomWeather, © 2017

Note: Actual official high and low records may vary slightly from our data, if they occured in-between our weather recording intervals... More about our weather records

Advertising

Bamyan Weather History for the Previous 24 Hours

Scroll right to see more
 ConditionsComfort  
Time TempWeatherWind HumidityBarometerVisibility
7:00 pm
Tue, Jan 24
37 °FPassing clouds.3 mph65%30.57 "HgN/A
6:00 pm39 °FPassing clouds.2 mph75%30.57 "Hg4 mi
5:30 pm39 °FPassing clouds.3 mph61%30.54 "HgN/A
5:00 pm39 °FPartly sunny.9 mph52%30.54 "HgN/A
4:30 pm39 °FOvercast.7 mph56%30.54 "HgN/A
4:00 pm39 °FOvercast.9 mph56%30.54 "HgN/A
3:30 pm39 °FOvercast.9 mph56%30.54 "HgN/A
3:00 pm39 °FOvercast.12 mph52%30.54 "HgN/A
2:30 pm39 °FOvercast.13 mph56%30.54 "HgN/A
2:00 pm39 °FPartly sunny.15 mph52%30.54 "HgN/A
1:30 pm39 °FPartly sunny.18 mph56%30.54 "HgN/A
1:00 pm39 °FPartly sunny.18 mph56%30.54 "HgN/A
12:30 pm39 °FPartly sunny.20 mph61%30.54 "HgN/A
12:00 pm39 °FPartly sunny.20 mph61%30.54 "HgN/A
11:30 am39 °FPartly sunny.21 mph61%30.54 "HgN/A
11:00 am39 °FPartly sunny.22 mph61%30.54 "HgN/A
10:30 am37 °FPartly sunny.22 mph65%30.54 "HgN/A
10:00 am37 °FPartly sunny.21 mph65%30.54 "HgN/A
9:30 am36 °FPartly sunny.20 mph70%30.51 "HgN/A
9:00 am36 °FPartly sunny.20 mph70%30.51 "HgN/A
8:00 am36 °FPartly sunny.15 mph70%30.48 "HgN/A
7:00 am36 °FPassing clouds.22 mph70%30.45 "HgN/A
6:30 am36 °FPassing clouds.22 mph70%30.42 "HgN/A
6:00 am36 °FPassing clouds.22 mph70%30.42 "HgN/A
5:00 am36 °FPassing clouds.22 mph70%30.39 "HgN/A
4:30 am36 °FPassing clouds.20 mph75%30.36 "HgN/A
4:00 am36 °FPassing clouds.21 mph75%30.36 "HgN/A
3:30 am36 °FPassing clouds.21 mph75%30.36 "HgN/A
3:00 am37 °FPassing clouds.21 mph75%30.36 "HgN/A
2:30 am37 °FPassing clouds.25 mph75%30.36 "HgN/A
2:00 am37 °FSprinkles. Mostly cloudy.22 mph81%30.36 "HgN/A
1:30 am37 °FSprinkles. Mostly cloudy.24 mph81%30.33 "HgN/A
1:00 am37 °FSprinkles. Mostly cloudy.25 mph87%30.33 "Hg5 mi
12:30 am37 °FSprinkles. Mostly cloudy.29 mph87%30.33 "HgN/A
12:00 am37 °FSprinkles. Mostly cloudy.28 mph81%30.33 "HgN/A
11:30 pm
Mon, Jan 23
37 °FSprinkles. Mostly cloudy.25 mph81%30.33 "HgN/A
11:00 pm39 °FMostly cloudy.29 mph75%30.30 "HgN/A
10:00 pm39 °FMostly cloudy.29 mph81%30.30 "Hg5 mi
9:30 pm39 °FMostly cloudy.30 mph81%30.27 "Hg4 mi
9:00 pm39 °FMostly cloudy.30 mph81%30.27 "Hg4 mi
8:00 pm39 °FFog.31 mph87%30.24 "Hg3 mi
Weather by CustomWeather, © 2017

See weather overviewHow to use our weather pages